Regional Weather Roundup
Issued by NWS

Home | Current Version | Previous Version | Text Only | Print | Product List | Glossary Off
Versions: 1 2 3 4 5 6 7 8 9 10 11 12 13 14 15 16 17 18 19 20 21 22 23 24 25 26 27 28 29 30 31 32 33 34 35 36 37 38 39 40 41 42 43 44 45 46 47 48 49 50

000
ASUS43 KLOT 301702
RWRIL

ILLINOIS REGIONAL WEATHER ROUNDUP
NATIONAL WEATHER SERVICE CHICAGO/ROMEOVILLE IL
1200 PM CDT MON MAR 30 2015

NOTE: "FAIR" INDICATES FEW OR NO CLOUDS BELOW 12,000 FEET WITH NO
SIGNIFICANT WEATHER AND/OR OBSTRUCTIONS TO VISIBILITY.

* THESE STATIONS ARE NOT UNDER NWS QUALITY CONTROL. THEY ALSO MAY NOT
  REPORT WEATHER SUCH AS PRECIPITATION OR FOG.

ILZ001-002-007-009-015-016-024-301800-
NORTHWEST ILLINOIS

CITY           SKY/WX    TMP DP  RH WIND       PRES   REMARKS
MOLINE         SUNNY     63  27  25 W16       30.04F
STERLING*      SUNNY     61  34  36 W16       30.04F
$$

ILZ003-004-008-010-011-017-018-301800-
NORTH CENTRAL ILLINOIS

CITY           SKY/WX    TMP DP  RH WIND       PRES   REMARKS
ROCKFORD       PTSUNNY   56  29  35 W13       30.03F
$$

ILZ005-006-012>014-019>023-301800-
NORTHEAST ILLINOIS

CITY           SKY/WX    TMP DP  RH WIND       PRES   REMARKS
CHICAGO-OHARE  PTSUNNY   56  27  32 W14       30.03F
CHICAGO-MIDWAY PTSUNNY   58  27  30 W14       30.04F
AURORA         MOSUNNY   57  30  35 W15       30.05F
WAUKEGAN       SUNNY     55  28  35 W8        30.00F
DUPAGE AIRPORT MOSUNNY   55  31  39 W13G21    30.04F
WHEELING       MOSUNNY   55  24  30 W12       30.04F
NORTHERLY ISL    N/A     53  24  32 NW8         N/A
$$

LMZ740>746-301800-
SOUTHERN LAKE MICHIGAN

STATION/POSITION SKY/WX   TEMP    WIND        PRES    VSBY  WAVE
                          AIR SEA DIR/SP/G                  HT/PER
                          (F)     (DEG/KT/KT) (MB)    (MI)  (FT/S)
HARRISON CRIB              49     260/ 14/ 18   N/A
BURNHAM HARBOR             52     240/ 10/ 13   N/A
CALUMET HARBOR             52     280/  9/ 16 1016.8F
BURNS HARBOR               43     270/  9/ 12 1018.6S
MICHIGAN CITY              39     220/ 14/ 14   N/A
$$

ILZ025>027-034>036-040-047-049-050-058-095>099-301800-
WEST-CENTRAL ILLINOIS

CITY           SKY/WX    TMP DP  RH WIND       PRES   REMARKS
QUINCY         SUNNY     62  29  28 W13       30.13F
GALESBURG*     SUNNY     60  30  32 SW18      30.08F
$$

ILZ028>032-037-038-041>044-048-051>054-059>061-301800-
CENTRAL ILLINOIS

CITY           SKY/WX    TMP DP  RH WIND       PRES   REMARKS
DECATUR        SUNNY     61  29  29 SW10      30.14F
PEORIA         SUNNY     64  28  25 W13G23    30.09F
SPRINGFIELD    SUNNY     63  31  30 W13G18    30.14F
TAYLORVILLE    NOT AVBL
$$

ILZ033-039-045-046-055>057-062-063-301800-
EAST-CENTRAL ILLINOIS

CITY           SKY/WX    TMP DP  RH WIND       PRES   REMARKS
CHAMPAIGN      SUNNY     58  34  40 W12       30.13F
MATTOON        SUNNY     58  31  35 W12G17    30.15F
$$

ILZ079-100>102-301800-
SOUTHWEST ILLINOIS

CITY           SKY/WX    TMP DP  RH WIND       PRES   REMARKS
ALTON          SUNNY     61  21  21 SW7       30.19
CAHOKIA*       SUNNY     62  33  33 W9        30.19F
$$

ILZ064>066-069>071-074>076-080>082-084>086-088>090-092>094-301800-
SOUTH-CENTRAL ILLINOIS

CITY           SKY/WX    TMP DP  RH WIND       PRES   REMARKS
CARBONDALE     MOSUNNY   60  28  29 CALM      30.20F
MARION         MOSUNNY   59  28  31 W3        30.22F
MT. VERNON     MOSUNNY   61  34  36 S7        30.20F
$$

ILZ067-068-072-073-078-083-087-091-301800-
SOUTHEAST ILLINOIS

CITY           SKY/WX    TMP DP  RH WIND       PRES   REMARKS
LAWRENCEVILLE  SUNNY     57  31  37 NW5       30.19F
$$

ABBREVIATIONS USED IN REMARKS
   TC - TEMPERATURE IN CELSIUS
  WCI - WIND CHILL INDEX
   HX - HEAT INDEX
  VSB - VISIBILITY
$$




USA.gov is the U.S. government's official web portal to all federal, state and local government web resources and services.